Pampa, TX

3:28 AM CST on February 07, 2016 (GMT -0600)
Perry Lefors

Weather History for KPPA - January, 2014

Change the Weather History Date:

Tuesday, January 14, 2014

  Actual Average Record
Temperature  
Mean Temperature 36 °F -  
Max Temperature 46 °F 48 °F 78 °F (1980)
Min Temperature 27 °F 21 °F -3 °F (1979)
Degree Days  
Heating Degree Days 28    
Moisture  
Dew Point 15 °F    
Average Humidity 42    
Maximum Humidity 68    
Minimum Humidity 19    
Precipitation  
Precipitation 0.00 in - - ()
Sea Level Pressure  
Sea Level Pressure 30.21 in    
Wind  
Wind Speed 14 mph (NNW)    
Max Wind Speed 30 mph    
Max Gust Speed 37 mph    
Visibility 10 miles    
Events      
Averages and records for this station are not official NWS values.
T = Trace of Precipitation, MM = Missing Value Source: NWS Daily Summary

Daily Weather History Graph

Daily Weather History Graph

Search for Another Location

Airport or City:

Trip Planner

Search our weather history database for the weather conditions in past years. The results will help you decide how hot, cold, wet, or windy it might be!

Date:

Astronomy

Jan. 14, 2014 Rise Set
Actual Time 7:53 AM CST 5:53 PM CST
Civil Twilight 7:25 AM CST 6:21 PM CST
Nautical Twilight 6:54 AM CST 6:52 PM CST
Astronomical Twilight 6:23 AM CST 7:23 PM CST
Moon 4:59 PM CST (1/14) 6:30 AM CST (1/14)
Length of Visible Light 10h 55m
Length of Day
10h 00m
Waxing Gibbous, 98% of the Moon is Illuminated
Jan 14
Waxing Gibbous
Jan 15
Full
Jan 23
Last Quarter
Jan 30
New
Feb 6
First Quarter

Hourly Weather History & Observations

Time (CST) Temp. Windchill Dew Point Humidity Pressure Visibility Wind Dir Wind Speed Gust Speed Precip Events Conditions
12:15 AM 42.1 °F 34.9 °F 2.8 °F 20% 29.99 in 10.0 mi SW 13.8 mph - N/A   Clear
12:35 AM 42.4 °F 35.0 °F 2.8 °F 19% 29.99 in 10.0 mi SW 15.0 mph - N/A   Clear
12:55 AM 41.4 °F 33.3 °F 3.0 °F 20% 29.97 in 10.0 mi SW 16.1 mph - N/A   Clear
1:15 AM 40.5 °F 32.5 °F 3.2 °F 21% 29.96 in 10.0 mi SW 15.0 mph - N/A   Clear
1:35 AM 37.9 °F 30.9 °F 3.7 °F 24% 29.96 in 10.0 mi SW 10.4 mph - N/A   Clear
1:55 AM 35.8 °F 29.4 °F 3.7 °F 26% 29.96 in 10.0 mi WSW 8.1 mph - N/A   Clear
2:15 AM 36.1 °F 31.4 °F 4.6 °F 27% 29.97 in 10.0 mi West 5.8 mph - N/A   Clear
2:35 AM 34.7 °F 27.5 °F 5.7 °F 30% 29.97 in 10.0 mi WNW 9.2 mph - N/A   Clear
2:55 AM 33.6 °F 26.2 °F 5.7 °F 31% 29.97 in 10.0 mi West 9.2 mph - N/A   Clear
3:15 AM 34.9 °F 27.1 °F 7.0 °F 31% 29.97 in 10.0 mi West 10.4 mph - N/A   Clear
3:35 AM 34.0 °F 26.0 °F 7.5 °F 33% 29.98 in 10.0 mi West 10.4 mph - N/A   Clear
3:55 AM 33.1 °F 23.9 °F 8.1 °F 35% 29.99 in 10.0 mi WNW 12.7 mph - N/A   Clear
4:15 AM 31.8 °F 22.8 °F 7.7 °F 36% 30.00 in 10.0 mi WNW 11.5 mph - N/A   Clear
4:35 AM 29.3 °F 20.2 °F 7.7 °F 40% 30.01 in 10.0 mi WNW 10.4 mph - N/A   Clear
4:55 AM 31.6 °F 22.1 °F 8.6 °F 38% 30.03 in 10.0 mi NW 12.7 mph 17.3 mph N/A   Clear
5:15 AM 33.1 °F 24.4 °F 8.6 °F 36% 30.05 in 10.0 mi NNW 11.5 mph - N/A   Clear
5:35 AM 32.0 °F 23.6 °F 9.1 °F 38% 30.05 in 10.0 mi NNW 10.4 mph - N/A   Clear
5:55 AM 31.5 °F 22.9 °F 9.9 °F 41% 30.05 in 10.0 mi North 10.4 mph - N/A   Clear
6:15 AM 32.2 °F 23.2 °F 11.1 °F 42% 30.06 in 10.0 mi North 11.5 mph - N/A   Clear
6:35 AM 32.0 °F 23.6 °F 12.2 °F 44% 30.07 in 10.0 mi North 10.4 mph - N/A   Clear
6:55 AM 31.1 °F 22.4 °F 12.2 °F 46% 30.07 in 10.0 mi North 10.4 mph - N/A   Clear
7:15 AM 32.7 °F 24.5 °F 14.9 °F 48% 30.08 in 10.0 mi North 10.4 mph - N/A   Clear
7:35 AM 34.0 °F 27.2 °F 16.3 °F 49% 30.09 in 10.0 mi North 8.1 mph - N/A   Mostly Cloudy
7:55 AM 34.7 °F 28.8 °F 17.1 °F 49% 30.11 in 10.0 mi North 6.9 mph - N/A   Overcast
8:15 AM 34.9 °F 28.3 °F 18.3 °F 51% 30.12 in 10.0 mi North 8.1 mph - N/A   Overcast
8:35 AM 33.4 °F 27.3 °F 16.2 °F 49% 30.14 in 10.0 mi WNW 6.9 mph - N/A   Mostly Cloudy
8:55 AM 33.3 °F 25.7 °F 16.3 °F 50% 30.17 in 10.0 mi WNW 9.2 mph - N/A   Scattered Clouds
9:15 AM 34.3 °F 28.4 °F 17.2 °F 50% 30.19 in 10.0 mi NW 6.9 mph - N/A   Clear
9:35 AM 35.8 °F 30.9 °F 18.5 °F 50% 30.20 in 10.0 mi NW 5.8 mph - N/A   Clear
9:55 AM 39.0 °F 32.3 °F 20.8 °F 48% 30.21 in 10.0 mi North 10.4 mph - N/A   Clear
10:15 AM 41.2 °F 35.5 °F 22.1 °F 47% 30.23 in 10.0 mi North 9.2 mph - N/A   Clear
10:35 AM 42.1 °F 35.7 °F 24.3 °F 49% 30.24 in 10.0 mi North 11.5 mph - N/A   Clear
10:55 AM 45.5 °F 37.6 °F 27.5 °F 49% 30.23 in 10.0 mi NNE 20.7 mph 27.6 mph N/A   Clear
11:15 AM 45.5 °F 36.7 °F 24.4 °F 44% 30.25 in 10.0 mi NNE 25.3 mph 33.4 mph N/A   Clear
11:35 AM 45.9 °F 37.4 °F 16.5 °F 31% 30.26 in 10.0 mi NNE 24.2 mph 29.9 mph N/A   Clear
11:55 AM 43.3 °F 34.2 °F 16.0 °F 33% 30.25 in 10.0 mi NNE 23.0 mph 33.4 mph N/A   Scattered Clouds
12:15 PM 45.5 °F 37.8 °F 15.8 °F 30% 30.24 in 10.0 mi NNE 19.6 mph 31.1 mph N/A   Scattered Clouds
12:35 PM 45.7 °F 37.6 °F 19.9 °F 36% 30.26 in 10.0 mi North 21.9 mph 27.6 mph N/A   Clear
12:55 PM 45.3 °F 37.1 °F 20.7 °F 38% 30.26 in 10.0 mi North 21.9 mph 28.8 mph N/A   Mostly Cloudy
1:15 PM 46.8 °F - 19.4 °F 34% 30.25 in 10.0 mi North 20.7 mph 33.4 mph N/A   Mostly Cloudy
1:35 PM 46.0 °F 37.4 °F 15.4 °F 29% 30.26 in 10.0 mi North 25.3 mph 32.2 mph N/A   Scattered Clouds
1:55 PM 46.0 °F 37.8 °F 12.9 °F 26% 30.26 in 10.0 mi North 23.0 mph 28.8 mph N/A   Scattered Clouds
2:15 PM 46.4 °F 38.3 °F 16.2 °F 30% 30.27 in 10.0 mi NNE 23.0 mph 34.5 mph N/A   Clear
2:35 PM 46.4 °F 37.7 °F 18.5 °F 33% 30.27 in 10.0 mi North 26.5 mph 33.4 mph N/A   Clear
2:55 PM 45.1 °F 36.0 °F 20.7 °F 38% 30.29 in 10.0 mi North 26.5 mph 35.7 mph N/A   Scattered Clouds
3:15 PM 45.5 °F 36.9 °F 21.6 °F 39% 30.29 in 10.0 mi North 24.2 mph 33.4 mph N/A   Mostly Cloudy
3:35 PM 44.6 °F 35.7 °F 20.3 °F 38% 30.31 in 10.0 mi North 24.2 mph 33.4 mph N/A   Scattered Clouds
3:55 PM 43.7 °F 33.5 °F 17.6 °F 35% 30.32 in 10.0 mi North 29.9 mph 36.8 mph N/A   Clear
4:15 PM 43.0 °F 33.1 °F 18.5 °F 37% 30.33 in 10.0 mi North 26.5 mph 32.2 mph N/A   Clear
4:35 PM 41.7 °F 31.4 °F 17.6 °F 38% 30.34 in 10.0 mi North 26.5 mph 32.2 mph N/A   Scattered Clouds
4:55 PM 40.5 °F 30.7 °F 16.5 °F 38% 30.34 in 10.0 mi North 21.9 mph 29.9 mph N/A   Scattered Clouds
5:15 PM 39.6 °F 29.2 °F 15.3 °F 37% 30.35 in 10.0 mi North 23.0 mph 32.2 mph N/A   Scattered Clouds
5:35 PM 38.7 °F 29.1 °F 14.9 °F 38% 30.35 in 10.0 mi North 18.4 mph 27.6 mph N/A   Scattered Clouds
5:55 PM 37.4 °F 28.9 °F 15.3 °F 41% 30.37 in 10.0 mi NNW 13.8 mph 19.6 mph N/A   Scattered Clouds
6:15 PM 36.5 °F 28.2 °F 16.5 °F 44% 30.39 in 10.0 mi NNW 12.7 mph - N/A   Scattered Clouds
6:35 PM 36.1 °F 28.7 °F 18.5 °F 49% 30.39 in 10.0 mi NNW 10.4 mph - N/A   Mostly Cloudy
6:55 PM 36.5 °F 28.2 °F 20.1 °F 52% 30.39 in 10.0 mi NW 12.7 mph 17.3 mph N/A   Mostly Cloudy
7:15 PM 36.0 °F 26.7 °F 19.2 °F 51% 30.39 in 10.0 mi NNW 15.0 mph - N/A   Scattered Clouds
7:35 PM 34.7 °F 25.5 °F 19.2 °F 53% 30.39 in 10.0 mi NNW 13.8 mph - N/A   Clear
7:55 PM 33.8 °F 25.3 °F 19.0 °F 55% 30.39 in 10.0 mi NW 11.5 mph - N/A   Scattered Clouds
8:15 PM 34.9 °F 26.2 °F 18.5 °F 51% 30.39 in 10.0 mi NNW 12.7 mph 19.6 mph N/A   Mostly Cloudy
8:35 PM 33.1 °F 24.4 °F 17.2 °F 52% 30.39 in 10.0 mi NW 11.5 mph - N/A   Scattered Clouds
8:55 PM 32.0 °F 24.2 °F 16.7 °F 53% 30.40 in 10.0 mi NW 9.2 mph - N/A   Clear
9:15 PM 30.0 °F 24.1 °F 16.7 °F 58% 30.40 in 10.0 mi WNW 5.8 mph - N/A   Clear
9:35 PM 28.2 °F 20.2 °F 17.6 °F 64% 30.40 in 10.0 mi WNW 8.1 mph - N/A   Clear
9:55 PM 27.0 °F 17.3 °F 17.6 °F 68% 30.40 in 10.0 mi West 10.4 mph - N/A   Scattered Clouds
10:15 PM 28.2 °F 19.5 °F 18.0 °F 65% 30.39 in 10.0 mi WNW 9.2 mph - N/A   Scattered Clouds
10:35 PM 27.0 °F 17.3 °F 17.2 °F 67% 30.39 in 10.0 mi WNW 10.4 mph - N/A   Clear
10:55 PM 27.0 °F 17.3 °F 17.2 °F 67% 30.38 in 10.0 mi NW 10.4 mph - N/A   Clear
11:15 PM 27.5 °F 18.6 °F 17.1 °F 65% 30.38 in 10.0 mi NW 9.2 mph - N/A   Clear
11:35 PM 28.6 °F 18.2 °F 17.6 °F 64% 30.37 in 10.0 mi NW 12.7 mph - N/A   Scattered Clouds
11:55 PM 28.0 °F 18.6 °F 17.4 °F 64% 30.38 in 10.0 mi WNW 10.4 mph - N/A   Clear